| time (UTC) | temp C | wind direction | speed KPH | gust KPH | rain 1hr cm | rain 24hr cm | rain mn cm | humidity % | barometer mb |
| 20260503235003 | 16 | 311 | 17.7 | 30.6 | 0.00 | 0.00 | 0.00 | 57 | 1011.7 |
| 20260503234503 | 16 | 320 | 16.1 | 25.7 | 0.00 | 0.00 | 0.00 | 57 | 1011.7 |
| 20260503234004 | 16 | 308 | 17.7 | 22.5 | 0.00 | 0.00 | 0.00 | 57 | 1011.7 |
| 20260503233503 | 16 | 308 | 19.3 | 25.7 | 0.00 | 0.00 | 0.00 | 57 | 1011.7 |
| 20260503233005 | 16 | 310 | 19.3 | 29.0 | 0.00 | 0.00 | 0.00 | 57 | 1011.7 |
| 20260503232503 | 16 | 301 | 20.9 | 30.6 | 0.00 | 0.00 | 0.00 | 56 | 1011.7 |
| 20260503232004 | 16 | 295 | 22.5 | 29.0 | 0.00 | 0.00 | 0.00 | 58 | 1011.7 |
| 20260503231504 | 16 | 318 | 20.9 | 30.6 | 0.00 | 0.00 | 0.00 | 58 | 1011.7 |
| 20260503231003 | 16 | 309 | 19.3 | 29.0 | 0.00 | 0.00 | 0.00 | 58 | 1011.6 |
| 20260503230504 | 16 | 306 | 19.3 | 27.4 | 0.00 | 0.00 | 0.00 | 58 | 1011.6 |
| 20260503230003 | 16 | 305 | 19.3 | 25.7 | 0.00 | 0.00 | 0.00 | 58 | 1011.8 |
| 20260503225504 | 16 | 311 | 19.3 | 25.7 | 0.00 | 0.00 | 0.00 | 56 | 1011.9 |
| 20260503225003 | 17 | 316 | 20.9 | 29.0 | 0.00 | 0.00 | 0.00 | 57 | 1011.9 |
| 20260503224503 | 17 | 317 | 22.5 | 29.0 | 0.00 | 0.00 | 0.00 | 57 | 1012.0 |
| 20260503224005 | 16 | 317 | 20.9 | 29.0 | 0.00 | 0.00 | 0.00 | 57 | 1011.9 |
| 20260503223503 | 17 | 318 | 19.3 | 30.6 | 0.00 | 0.00 | 0.00 | 56 | 1011.9 |
| 20260503223004 | 17 | 320 | 19.3 | 29.0 | 0.00 | 0.00 | 0.00 | 58 | 1012.0 |
| 20260503222503 | 16 | 319 | 20.9 | 29.0 | 0.00 | 0.00 | 0.00 | 59 | 1011.9 |
| 20260503222005 | 16 | 319 | 20.9 | 32.2 | 0.00 | 0.00 | 0.00 | 58 | 1012.0 |
| 20260503221503 | 16 | 320 | 19.3 | 35.4 | 0.00 | 0.00 | 0.00 | 57 | 1012.0 |
| 20260503221003 | 16 | 316 | 16.1 | 27.4 | 0.00 | 0.00 | 0.00 | 58 | 1012.1 |
| 20260503220504 | 16 | 307 | 19.3 | 25.7 | 0.00 | 0.00 | 0.00 | 58 | 1012.1 |
| 20260503220003 | 17 | 316 | 19.3 | 32.2 | 0.00 | 0.00 | 0.00 | 58 | 1012.2 |
| 20260503215504 | 16 | 317 | 19.3 | 32.2 | 0.00 | 0.00 | 0.00 | 59 | 1012.1 |
| 20260503215003 | 16 | 315 | 20.9 | 25.7 | 0.00 | 0.00 | 0.00 | 58 | 1012.2 |
| 20260503214503 | 16 | 319 | 20.9 | 30.6 | 0.00 | 0.00 | 0.00 | 59 | 1012.2 |
| 20260503214004 | 17 | 314 | 22.5 | 24.1 | 0.00 | 0.00 | 0.00 | 58 | 1012.1 |
| 20260503213503 | 16 | 315 | 24.1 | 38.6 | 0.00 | 0.00 | 0.00 | 59 | 1012.0 |
| 20260503213003 | 16 | 317 | 22.5 | 33.8 | 0.00 | 0.00 | 0.00 | 58 | 1012.1 |
| 20260503212505 | 17 | 313 | 24.1 | 29.0 | 0.00 | 0.00 | 0.00 | 57 | 1012.0 |
| 20260503212005 | 17 | 318 | 22.5 | 35.4 | 0.00 | 0.00 | 0.00 | 57 | 1012.1 |
| 20260503211006 | 17 | 319 | 19.3 | 33.8 | 0.00 | 0.00 | 0.00 | 56 | 1011.9 |
| 20260503210507 | 17 | 319 | 22.5 | 20.9 | 0.00 | 0.00 | 0.00 | 57 | 1011.9 |
| 20260503210006 | 17 | 317 | 24.1 | 30.6 | 0.00 | 0.00 | 0.00 | 56 | 1012.1 |
| 20260503205506 | 17 | 316 | 22.5 | 25.7 | 0.00 | 0.00 | 0.00 | 56 | 1012.2 |
| 20260503205006 | 17 | 314 | 19.3 | 33.8 | 0.00 | 0.00 | 0.00 | 57 | 1012.1 |
| 20260503204006 | 18 | 320 | 19.3 | 29.0 | 0.00 | 0.00 | 0.00 | 54 | 1012.2 |
| 20260503203505 | 17 | 320 | 16.1 | 29.0 | 0.00 | 0.00 | 0.00 | 54 | 1012.3 |
| 20260503203005 | 17 | 309 | 14.5 | 25.7 | 0.00 | 0.00 | 0.00 | 56 | 1012.3 |
| 20260503202006 | 17 | 317 | 16.1 | 29.0 | 0.00 | 0.00 | 0.00 | 54 | 1012.2 |
| 20260503201506 | 18 | 323 | 17.7 | 27.4 | 0.00 | 0.00 | 0.00 | 53 | 1012.3 |
| 20260503200506 | 18 | 319 | 17.7 | 24.1 | 0.00 | 0.00 | 0.00 | 51 | 1012.4 |
| 20260503200006 | 18 | 319 | 16.1 | 27.4 | 0.00 | 0.00 | 0.00 | 49 | 1012.8 |
| 20260503195006 | 18 | 317 | 12.9 | 25.7 | 0.00 | 0.00 | 0.00 | 50 | 1012.7 |
| 20260503194505 | 18 | 312 | 8.0 | 22.5 | 0.00 | 0.00 | 0.00 | 50 | 1012.9 |
| 20260503194006 | 17 | 322 | 6.4 | 24.1 | 0.00 | 0.00 | 0.00 | 51 | 1013.0 |
| 20260503193506 | 17 | 324 | 6.4 | 12.9 | 0.00 | 0.00 | 0.00 | 50 | 1013.0 |
| 20260503193007 | 17 | 289 | 6.4 | 14.5 | 0.00 | 0.00 | 0.00 | 51 | 1013.1 |
| 20260503192506 | 18 | 329 | 8.0 | 12.9 | 0.00 | 0.00 | 0.00 | 50 | 1013.1 |
| 20260503192006 | 18 | 305 | 8.0 | 14.5 | 0.00 | 0.00 | 0.00 | 50 | 1013.1 |
| 20260503191505 | 18 | 286 | 11.3 | 16.1 | 0.00 | 0.00 | 0.00 | 51 | 1013.2 |
| 20260503191006 | 17 | 318 | 12.9 | 20.9 | 0.00 | 0.00 | 0.00 | 53 | 1013.1 |
| 20260503190506 | 17 | 319 | 14.5 | 22.5 | 0.00 | 0.00 | 0.00 | 53 | 1013.3 |
| 20260503190007 | 18 | 313 | 12.9 | 19.3 | 0.00 | 0.00 | 0.00 | 51 | 1013.2 |
| 20260503185506 | 17 | 315 | 12.9 | 20.9 | 0.00 | 0.00 | 0.00 | 50 | 1013.2 |
| 20260503184007 | 17 | 319 | 16.1 | 20.9 | 0.00 | 0.00 | 0.00 | 56 | 1013.3 |
| 20260503183505 | 16 | 318 | 14.5 | 25.7 | 0.00 | 0.00 | 0.00 | 56 | 1013.3 |
| 20260503183006 | 16 | 321 | 17.7 | 20.9 | 0.00 | 0.00 | 0.00 | 58 | 1013.3 |
| 20260503182506 | 16 | 312 | 17.7 | 22.5 | 0.00 | 0.00 | 0.00 | 59 | 1013.4 |
| 20260503182006 | 16 | 317 | 19.3 | 24.1 | 0.00 | 0.00 | 0.00 | 61 | 1013.5 |
| 20260503181506 | 15 | 316 | 19.3 | 24.1 | 0.00 | 0.00 | 0.00 | 61 | 1013.6 |
| 20260503181006 | 15 | 318 | 19.3 | 29.0 | 0.00 | 0.00 | 0.00 | 64 | 1013.5 |
| 20260503180505 | 14 | 314 | 19.3 | 25.7 | 0.00 | 0.00 | 0.00 | 65 | 1013.6 |
| 20260503180006 | 15 | 322 | 16.1 | 29.0 | 0.00 | 0.00 | 0.00 | 65 | 1013.7 |
| 20260503175006 | 14 | 320 | 20.9 | 29.0 | 0.00 | 0.00 | 0.00 | 64 | 1013.5 |
| 20260503174506 | 15 | 320 | 19.3 | 32.2 | 0.00 | 0.00 | 0.00 | 64 | 1013.4 |
| 20260503174006 | 15 | 320 | 20.9 | 29.0 | 0.00 | 0.00 | 0.00 | 64 | 1013.5 |
| 20260503173506 | 15 | 314 | 19.3 | 30.6 | 0.00 | 0.00 | 0.00 | 64 | 1013.3 |
| 20260503173502 | 15 | 313 | 20.9 | 20.9 | 0.00 | 0.00 | 0.00 | 64 | 1013.3 |
| 20260503173006 | 15 | 318 | 19.3 | 33.8 | 0.00 | 0.00 | 0.00 | 63 | 1013.3 |
| 20260503171006 | 17 | 329 | 11.3 | 20.9 | 0.00 | 0.00 | 0.00 | 49 | 1013.2 |
| 20260503170507 | 20 | 323 | 12.9 | 20.9 | 0.00 | 0.00 | 0.00 | 38 | 1013.2 |
| 20260503151002 | 18 | 85 | 11.3 | 24.1 | 0.00 | 0.00 | 0.00 | 27 | 1012.9 |
| 20260503131002 | 8 | 152 | 6.4 | 11.3 | 0.00 | 0.00 | 0.00 | 52 | 1012.6 |
| 20260503130503 | 8 | 151 | 6.4 | 11.3 | 0.00 | 0.00 | 0.00 | 52 | 1012.7 |
| 20260503110503 | 8 | 0 | 0.0 | 0.0 | 0.00 | 0.00 | 0.00 | 50 | 1013.3 |
| 20260503090503 | 12 | 161 | 1.6 | 8.0 | 0.00 | 0.00 | 0.00 | 38 | 1014.0 |
| 20260503081503 | 14 | 168 | 3.2 | 8.0 | 0.00 | 0.00 | 0.00 | 34 | 1014.1 |
| 20260503081003 | 14 | 100 | 3.2 | 4.8 | 0.00 | 0.00 | 0.00 | 34 | 1014.0 |
| 20260503080502 | 15 | 94 | 4.8 | 4.8 | 0.00 | 0.00 | 0.00 | 33 | 1014.3 |
| 20260503072503 | 18 | 201 | 4.8 | 9.7 | 0.00 | 0.00 | 0.00 | 25 | 1014.3 |
| 20260503072002 | 17 | 243 | 6.4 | 11.3 | 0.00 | 0.00 | 0.00 | 25 | 1014.3 |
| 20260503071504 | 17 | 238 | 6.4 | 8.0 | 0.00 | 0.00 | 0.00 | 26 | 1014.1 |
| 20260503071003 | 17 | 249 | 3.2 | 11.3 | 0.00 | 0.00 | 0.00 | 26 | 1014.0 |
| 20260503055004 | 18 | 278 | 9.7 | 19.3 | 0.00 | 0.00 | 0.00 | 25 | 1014.0 |
| 20260503054502 | 18 | 310 | 6.4 | 16.1 | 0.00 | 0.00 | 0.00 | 25 | 1014.0 |
| 20260503054003 | 18 | 311 | 4.8 | 12.9 | 0.00 | 0.00 | 0.00 | 26 | 1014.2 |
| 20260503053003 | 18 | 286 | 8.0 | 14.5 | 0.00 | 0.00 | 0.00 | 27 | 1014.2 |
| 20260503052503 | 18 | 304 | 9.7 | 9.7 | 0.00 | 0.00 | 0.00 | 27 | 1014.2 |
| 20260503052003 | 18 | 272 | 9.7 | 16.1 | 0.00 | 0.00 | 0.00 | 27 | 1014.2 |
| 20260503051003 | 18 | 250 | 8.0 | 12.9 | 0.00 | 0.00 | 0.00 | 26 | 1014.2 |
| 20260503050504 | 18 | 234 | 9.7 | 14.5 | 0.00 | 0.00 | 0.00 | 26 | 1014.2 |
| 20260503050004 | 17 | 210 | 11.3 | 16.1 | 0.00 | 0.00 | 0.00 | 27 | 1014.2 |
| 20260503045503 | 17 | 210 | 6.4 | 20.9 | 0.00 | 0.00 | 0.00 | 28 | 1014.2 |
| 20260503045003 | 17 | 216 | 0.0 | 19.3 | 0.00 | 0.00 | 0.00 | 28 | 1014.3 |
| 20260503044503 | 17 | 31 | 0.0 | 3.2 | 0.00 | 0.00 | 0.00 | 28 | 1014.2 |
| 20260503044003 | 17 | 0 | 1.6 | 0.0 | 0.00 | 0.00 | 0.00 | 28 | 1014.3 |
| 20260503043003 | 18 | 124 | 3.2 | 4.8 | 0.00 | 0.00 | 0.00 | 27 | 1014.0 |
| 20260503042003 | 18 | 160 | 3.2 | 6.4 | 0.00 | 0.00 | 0.00 | 25 | 1013.8 |
| 20260503041503 | 18 | 195 | 3.2 | 9.7 | 0.00 | 0.00 | 0.00 | 26 | 1013.7 |
| 20260503040503 | 18 | 186 | 3.2 | 9.7 | 0.00 | 0.00 | 0.00 | 26 | 1013.7 |
| 20260503040005 | 18 | 127 | 4.8 | 4.8 | 0.00 | 0.00 | 0.00 | 27 | 1013.6 |
| 20260503035503 | 18 | 153 | 6.4 | 12.9 | 0.00 | 0.00 | 0.00 | 26 | 1013.5 |
| 20260503035003 | 18 | 181 | 6.4 | 14.5 | 0.00 | 0.00 | 0.00 | 26 | 1013.5 |
| 20260503034504 | 18 | 154 | 6.4 | 12.9 | 0.00 | 0.00 | 0.00 | 26 | 1013.3 |
| 20260503034003 | 18 | 185 | 6.4 | 9.7 | 0.00 | 0.00 | 0.00 | 27 | 1013.2 |
| 20260503033004 | 19 | 172 | 9.7 | 19.3 | 0.00 | 0.00 | 0.00 | 26 | 1013.1 |
| 20260503032503 | 20 | 175 | 11.3 | 17.7 | 0.00 | 0.00 | 0.00 | 26 | 1013.0 |
| 20260503032003 | 20 | 181 | 11.3 | 19.3 | 0.00 | 0.00 | 0.00 | 26 | 1013.1 |
| 20260503031504 | 20 | 174 | 9.7 | 24.1 | 0.00 | 0.00 | 0.00 | 26 | 1013.1 |
| 20260503031004 | 20 | 163 | 9.7 | 20.9 | 0.00 | 0.00 | 0.00 | 26 | 1013.1 |
| 20260503030504 | 20 | 167 | 11.3 | 17.7 | 0.00 | 0.00 | 0.00 | 26 | 1013.1 |
| 20260503024503 | 21 | 177 | 12.9 | 16.1 | 0.00 | 0.00 | 0.00 | 24 | 1012.9 |
| 20260503024003 | 21 | 177 | 12.9 | 27.4 | 0.00 | 0.00 | 0.00 | 24 | 1012.9 |
| 20260503023505 | 21 | 178 | 11.3 | 22.5 | 0.00 | 0.00 | 0.00 | 23 | 1012.8 |
| 20260503023004 | 21 | 182 | 11.3 | 17.7 | 0.00 | 0.00 | 0.00 | 23 | 1012.9 |
| 20260503022503 | 21 | 167 | 12.9 | 27.4 | 0.00 | 0.00 | 0.00 | 23 | 1012.8 |
| 20260503022004 | 22 | 179 | 9.7 | 20.9 | 0.00 | 0.00 | 0.00 | 23 | 1012.9 |
| 20260503021504 | 22 | 186 | 8.0 | 22.5 | 0.00 | 0.00 | 0.00 | 23 | 1013.0 |
| 20260503021003 | 22 | 186 | 9.7 | 12.9 | 0.00 | 0.00 | 0.00 | 23 | 1013.1 |
| 20260503020504 | 22 | 170 | 12.9 | 12.9 | 0.00 | 0.00 | 0.00 | 22 | 1013.0 |
| 20260503020004 | 22 | 153 | 12.9 | 24.1 | 0.00 | 0.00 | 0.00 | 22 | 1013.1 |
| 20260503015503 | 22 | 159 | 9.7 | 20.9 | 0.00 | 0.00 | 0.00 | 22 | 1013.3 |
| 20260503015003 | 23 | 173 | 9.7 | 22.5 | 0.00 | 0.00 | 0.00 | 22 | 1013.2 |
| 20260503014003 | 23 | 160 | 11.3 | 19.3 | 0.00 | 0.00 | 0.00 | 22 | 1013.2 |
| 20260503013004 | 23 | 150 | 9.7 | 27.4 | 0.00 | 0.00 | 0.00 | 23 | 1013.3 |
| 20260503012003 | 23 | 193 | 11.3 | 19.3 | 0.00 | 0.00 | 0.00 | 24 | 1013.3 |
| 20260503011503 | 23 | 168 | 11.3 | 17.7 | 0.00 | 0.00 | 0.00 | 24 | 1013.2 |
| 20260503011004 | 23 | 189 | 9.7 | 24.1 | 0.00 | 0.00 | 0.00 | 25 | 1013.3 |
| 20260503010504 | 23 | 178 | 9.7 | 16.1 | 0.00 | 0.00 | 0.00 | 24 | 1013.2 |
| 20260503005504 | 23 | 173 | 12.9 | 16.1 | 0.00 | 0.00 | 0.00 | 24 | 1013.3 |
| 20260503005005 | 24 | 189 | 12.9 | 20.9 | 0.00 | 0.00 | 0.00 | 24 | 1013.3 |
| 20260503004003 | 24 | 155 | 14.5 | 22.5 | 0.00 | 0.00 | 0.00 | 24 | 1013.4 |
| 20260503002504 | 24 | 171 | 12.9 | 20.9 | 0.00 | 0.00 | 0.00 | 23 | 1013.2 |
| 20260503002004 | 24 | 147 | 14.5 | 25.7 | 0.00 | 0.00 | 0.00 | 24 | 1013.2 |
| 20260503001504 | 24 | 144 | 16.1 | 19.3 | 0.00 | 0.00 | 0.00 | 23 | 1013.3 |
| 20260503001004 | 24 | 153 | 12.9 | 30.6 | 0.00 | 0.00 | 0.00 | 24 | 1013.4 |
| 20260503000504 | 24 | 125 | 12.9 | 22.5 | 0.00 | 0.00 | 0.00 | 23 | 1013.3 |